This demonstration page uses our WeatherBlox Daily Observations layout. Learn more.

39.92423, -83.80882

Hourly Observations for June 8, 2017

Temp ( °F °C ) Dew Point ( °F °C ) Humidity (%) Winds ( mph kmh ) Pressure ( in mb ) Visibility ( mi km ) Precip ( " mm )
1:58 am 01:58 Mostly Clear 55 12.6 51 10.4 87 87 Calm 30.04 1017 10 16.0934 0 0
2:58 am 02:58 Clear 55 12.5 50 10 85 85 Calm 30.03 1017 10 16.0934 0 0
3:18 am 03:18 Clear with Mist and Fog 52 11 50 10 94 94 Calm 30.03 1017 4 6.43736 0 0
3:58 am 03:58 Clear with Fog 51 10.6 50 9.9 95 95 Calm 30.03 1017 10 16.0934 0 0
4:58 am 04:58 Clear with Fog 50 9.9 50 9.9 100 100 Calm 30.02 1017 10 16.0934 0 0
5:58 am 05:58 Mostly Clear with Fog 52 11.1 52 10.9 99 99 Calm 30.03 1017 10 16.0934 0 0
6:58 am 06:58 Mostly Cloudy 52 11 51 10.8 99 99 Calm 30.04 1017 10 16.0934 0 0
7:58 am 07:58 Sunny 55 12.8 53 11.9 94 94 NNE 3 6 30.05 1018 10 16.0934 0 0
8:58 am 08:58 Mostly Sunny 60 15.7 54 12.4 81 81 NE 7 11 30.04 1017 10 16.0934 0 0
9:58 am 09:58 Mostly Sunny 64 18 55 12.8 72 72 NNE 7 11 30.03 1017 10 16.0934 0 0
10:58 am 10:58 Partly Cloudy 66 19 54 12.1 64 64 NNE 10 17 30.01 1016 10 16.0934 0 0
11:58 am 11:58 Partly Cloudy 69 20.4 53 11.6 57 57 NE 7 11 30 1016 10 16.0934 0 0
12:58 pm 12:58 Partly Cloudy 69 20.6 52 10.9 54 54 Calm 29.99 1016 10 16.0934 0 0
1:58 pm 13:58 Partly Cloudy 72 22.1 52 11 49 49 ENE 3 6 29.97 1015 10 16.0934 0 0
2:58 pm 14:58 Partly Cloudy 74 23.1 52 11.2 47 47 E 6 9 29.95 1014 10 16.0934 0 0
3:58 pm 15:58 Mostly Sunny 73 23 50 10.1 44 44 E 6 9 29.92 1013 10 16.0934 0 0
4:58 pm 16:58 Partly Cloudy 75 23.7 49 9.3 40 40 NW 6 9 29.91 1013 10 16.0934 0 0
5:58 pm 17:58 Mostly Sunny 74 23.2 48 9.1 41 41 Calm 29.89 1012 10 16.0934 0 0
6:58 pm 18:58 Mostly Sunny 75 23.8 47 8.5 38 38 N 5 7 29.88 1012 10 16.0934 0 0
7:58 pm 19:58 Mostly Sunny 74 23.2 46 7.8 37 37 NW 5 7 29.88 1012 10 16.0934 0 0
8:58 pm 20:58 Sunny 71 21.4 47 8.4 43 43 NNW 3 6 29.9 1013 10 16.0934 0 0
9:58 pm 21:58 Clear 64 17.7 49 9.6 59 59 Calm 29.9 1013 10 16.0934 0 0
10:58 pm 22:58 Clear 61 16 51 10.3 69 69 Calm 29.91 1013 10 16.0934 0 0
11:58 pm 23:58 Clear 58 14.5 50 10.1 75 75 Calm 29.9 1013 10 16.0934 0 0

Powered by AerisWeather